Weather History for Salzburg Flughafen, Austria

Change the Weather History Date:

Friday, August 2, 2013

  Actual Average Record
Temperature  
Mean Temperature 78 °F -  
Max Temperature 94 °F 71 °F 94 °F (2013)
Min Temperature 61 °F 55 °F 50 °F (1999)
Cooling Degree Days 12    
Growing Degree Days 28 (Base 50)    
Moisture  
Dew Point 54 °F    
Average Humidity 46    
Maximum Humidity 77    
Minimum Humidity 17    
Precipitation  
Precipitation 0.00 in 0.20 in - ()
Sea Level Pressure  
Sea Level Pressure 30.03 in    
Wind  
Wind Speed 5 mph ()    
Max Wind Speed 12 mph    
Max Gust Speed -    
Visibility 6.7 miles    
Events      
Averages and records for this station are not official NWS values.
T = Trace of Precipitation, MM = Missing Value Source: Averaged Metar Reports

Daily Weather History Graph

Daily Weather History Graph

Search for Another Location

Airport:

Trip Planner

Search our weather history database for the weather conditions in past years. The results will help you decide how hot, cold, wet, or windy it might be!

Date:

Astronomy

Aug. 02, 2013 Rise Set
Actual Time 5:46 AM CEST 8:41 PM CEST
Civil Twilight 5:10 AM CEST 9:17 PM CEST
Nautical Twilight 4:23 AM CEST 10:03 PM CEST
Astronomical Twilight 3:27 AM CEST 10:58 PM CEST
Moon 1:51 AM CEST (8/2) 5:28 PM CEST (8/2)
Length of Visible Light 16h 07m
Length of Day
14h 55m
Waning Crescent, 17% of the Moon is Illuminated
Aug 2
Waning Crescent
Aug 6
New
Aug 14
First Quarter
Aug 21
Full
Aug 28
Last Quarter

Hourly Weather History & Observations

Time (CEST) Temp. Heat Index Dew Point Humidity Pressure Visibility Wind Dir Wind Speed Gust Speed Precip Events Conditions
12:20 AM 68.0 °F - 55.4 °F 64% 30.06 in 6.2 mi SSE 4.6 mph - N/A   Unknown
12:50 AM 66.2 °F - 55.4 °F 68% 30.06 in 6.2 mi SSE 3.5 mph - N/A   Unknown
1:20 AM 64.4 °F - 53.6 °F 68% 30.06 in 6.2 mi South 2.3 mph - N/A   Unknown
1:50 AM 62.6 °F - 55.4 °F 77% 30.06 in 6.2 mi Variable 2.3 mph - N/A   Unknown
2:00 AM 63 °F - 55 °F 67% 30.04 in 28 mi 2.2 mph - -  
2:20 AM 64.4 °F - 53.6 °F 68% 30.06 in 6.2 mi South 3.5 mph - N/A   Unknown
2:50 AM 62.6 °F - 53.6 °F 72% 30.06 in 6.2 mi SSE 4.6 mph - N/A   Unknown
3:20 AM 62.6 °F - 53.6 °F 72% 30.06 in 6.2 mi South 6.9 mph - N/A   Unknown
3:50 AM 60.8 °F - 53.6 °F 77% 30.06 in - SSE 10.4 mph - N/A   Clear
4:20 AM 60.8 °F - 53.6 °F 77% 30.06 in - SSE 8.1 mph - N/A   Clear
4:50 AM 62.6 °F - 51.8 °F 68% 30.06 in - South 6.9 mph - N/A   Clear
5:00 AM 62 °F - 53 °F 63% 30.04 in 47 mi South 6.7 mph - -  
5:20 AM 64.4 °F - 51.8 °F 64% 30.06 in - SSE 9.2 mph - N/A   Clear
5:50 AM 64.4 °F - 51.8 °F 64% 30.06 in - South 10.4 mph - N/A   Clear
6:20 AM 64.4 °F - 51.8 °F 64% 30.06 in - South 10.4 mph - N/A   Clear
6:50 AM 66.2 °F - 51.8 °F 60% 30.06 in - SSE 11.5 mph - N/A   Clear
7:20 AM 68.0 °F - 51.8 °F 56% 30.06 in - SSE 11.5 mph - N/A   Clear
7:50 AM 69.8 °F - 53.6 °F 56% 30.06 in - South 8.1 mph - N/A   Clear
8:00 AM 70 °F - 53 °F 44% 30.04 in 31 mi South 8.9 mph - -  
8:20 AM 71.6 °F - 53.6 °F 53% 30.09 in - SSE 9.2 mph - N/A   Clear
8:50 AM 75.2 °F - 55.4 °F 50% 30.09 in - SSE 6.9 mph - N/A   Clear
9:20 AM 77.0 °F - 55.4 °F 47% 30.09 in - SSE 8.1 mph - N/A   Clear
9:50 AM 78.8 °F - 55.4 °F 44% 30.09 in - SSE 5.8 mph - N/A   Clear
10:20 AM 82.4 °F 81.7 °F 55.4 °F 39% 30.09 in - SE 3.5 mph - N/A   Clear
10:50 AM 82.4 °F 81.7 °F 55.4 °F 39% 30.06 in - Variable 2.3 mph - N/A   Clear
11:00 AM 83 °F - 55 °F 28% 30.01 in 31 mi 2.2 mph - -  
11:20 AM 84.2 °F 82.8 °F 53.6 °F 35% 30.06 in - Variable 2.3 mph - N/A   Clear
11:50 AM 86.0 °F 84.2 °F 53.6 °F 33% 30.06 in - Variable 4.6 mph - N/A   Clear
12:20 PM 87.8 °F 85.7 °F 53.6 °F 31% 30.06 in - Variable 3.5 mph - N/A   Clear
12:50 PM 89.6 °F 87.3 °F 53.6 °F 29% 30.06 in 6.2 mi Variable 3.5 mph - N/A   Partly Cloudy
1:20 PM 89.6 °F 87.3 °F 53.6 °F 29% 30.04 in 6.2 mi Variable 4.6 mph - N/A   Partly Cloudy
1:50 PM 91.4 °F - 51.8 °F 26% 30.04 in 6.2 mi NNW 5.8 mph - N/A   Partly Cloudy
2:00 PM 90 °F - 52 °F 18% 29.95 in 31 mi NNW 6.7 mph - -   Scattered Clouds
2:20 PM 91.4 °F 89.4 °F 55.4 °F 29% 30.04 in 6.2 mi Variable 4.6 mph - N/A   Partly Cloudy
2:50 PM 93.2 °F - 50.0 °F 23% 30.01 in 6.2 mi North 5.8 mph - N/A   Partly Cloudy
3:20 PM 93.2 °F - 51.8 °F 24% 30.01 in 6.2 mi North 6.9 mph - N/A   Partly Cloudy
3:50 PM 93.2 °F 90.8 °F 53.6 °F 26% 30.01 in 6.2 mi Variable 4.6 mph - N/A   Partly Cloudy
4:20 PM 95.0 °F 92.7 °F 53.6 °F 25% 30.01 in 6.2 mi North 8.1 mph - N/A   Partly Cloudy
4:50 PM 95.0 °F 92.7 °F 53.6 °F 25% 29.98 in 6.2 mi North 8.1 mph - N/A   Partly Cloudy
5:00 PM 94 °F - 54 °F 17% 29.89 in 31 mi North 8.9 mph - -   Scattered Clouds
5:20 PM 95.0 °F 92.7 °F 53.6 °F 25% 29.98 in 6.2 mi NE 6.9 mph - N/A   Partly Cloudy
5:50 PM 95.0 °F 92.7 °F 53.6 °F 25% 29.98 in 6.2 mi NNE 8.1 mph - N/A   Partly Cloudy
6:20 PM 93.2 °F 90.8 °F 53.6 °F 26% 29.98 in 6.2 mi NNE 5.8 mph - N/A   Partly Cloudy
6:50 PM 93.2 °F 90.8 °F 53.6 °F 26% 29.98 in 6.2 mi NNE 6.9 mph - N/A   Partly Cloudy
7:20 PM 93.2 °F - 51.8 °F 24% 29.98 in 6.2 mi ENE 8.1 mph - N/A   Partly Cloudy
7:50 PM 91.4 °F - 51.8 °F 26% 29.98 in 6.2 mi ENE 8.1 mph - N/A   Partly Cloudy
8:00 PM 91 °F - 51 °F 17% 29.90 in 31 mi ENE 8.9 mph - -   Scattered Clouds
8:20 PM 89.6 °F - 50.0 °F 26% 30.01 in 6.2 mi NNE 6.9 mph - N/A   Partly Cloudy
8:50 PM 82.4 °F 82.9 °F 60.8 °F 48% 30.01 in 6.2 mi North 4.6 mph - N/A   Partly Cloudy
9:20 PM 77.0 °F - 59.0 °F 54% 30.01 in 6.2 mi Variable 2.3 mph - N/A   Partly Cloudy
9:50 PM 75.2 °F - 59.0 °F 57% 30.01 in 6.2 mi Variable 1.2 mph - N/A   Partly Cloudy
10:20 PM 73.4 °F - 59.0 °F 61% 30.04 in - SSE 4.6 mph - N/A   Clear
10:50 PM 71.6 °F - 59.0 °F 64% 30.04 in - SSE 4.6 mph - N/A   Clear
11:00 PM 72 °F - 58 °F 53% 29.99 in 19 mi SSE 4.5 mph - -  
11:20 PM 73.4 °F - 59.0 °F 61% 30.04 in - SSE 5.8 mph - N/A   Clear
11:50 PM 69.8 °F - 59.0 °F 68% 30.04 in 6.2 mi South 4.6 mph - N/A   Scattered Clouds